Regional Weather Roundup
Issued by NWS Grand Forks, ND

Home | Current Version | Previous Version | Graphics & Text | Print | Product List | Glossary On
Versions: 1 2 3 4 5 6 7 8 9 10 11 12 13 14 15 16 17 18 19 20 21 22 23 24 25 26 27 28 29 30 31 32 33 34 35 36 37 38 39 40 41 42 43 44 45 46 47 48 49 50
000
ASUS43 KFGF 220110
RWRFGF
PRAIRIE TO PINES  WEATHER ROUNDUP
NATIONAL WEATHER SERVICE EASTERN NORTH DAKOTA/GRAND FORKS ND
800 PM CDT SUN SEP 21 2014

 **SATELLITE DATA USED TO AUGMENT SKY COVER AT AUTOMATED STATIONS**
 *****  WEATHER ACROSS EASTERN NORTH DAKOTA  *****

CITY           SKY/WX    TMP DP  RH WIND       PRES   REMARKS
GRAND FORKS    CLEAR     59  50  72 SE5       30.18F
GRAND FRKS AFB CLEAR     56  50  82 S6        30.19S
GRAND FRKS NWS   N/A     57 N/A N/A SE5         N/A
DEVILS LAKE    CLEAR     61  48  63 SW5       30.17S
FARGO          CLEAR     56  50  80 E7        30.21R
WAHPETON ARPT  CLEAR     55  48  76 E3        30.22S
$$

 ***** WEATHER ACROSS CENTRAL AND WESTERN NORTH DAKOTA  *****

CITY           SKY/WX    TMP DP  RH WIND       PRES   REMARKS
BISMARCK       CLEAR     61  44  53 SE3       30.21F
MINOT          CLEAR     64  41  42 CALM      30.17F
JAMESTOWN      CLEAR     57  49  74 CALM      30.20S
MINOT AFB      CLEAR     62  44  51 SW5       30.17S
GARRISON         N/A     58  44  60 W5        30.19F
WILLISTON      CLEAR     66  36  32 SE3       30.17F
DICKINSON      CLEAR     66  35  31 E5        30.20F
HETTINGER      CLEAR     61  37  41 SE5       30.23F
$$

 *****  OTHER AIRPORT OBSERVATIONS IN OUR AREA  *****

CITY           SKY/WX    TMP DP  RH WIND       PRES   REMARKS
WALHALLA         N/A     57  55  94 CALM      30.16S
GRAFTON AIRPOR FAIR      55  52  88 SE6       30.17S
VALLEY CITY AR FAIR      55  54  94 W5        30.21R
CANDO          FAIR      55  46  71 W7        30.19S
CAVALIER APRT  FAIR      57  52  82 S6        30.16S
GWINNER        CLEAR     59  48  67 CALM      30.23S
ROLLA          FAIR      54  46  76 SW5       30.20S
 ***** THE ABOVE OBSERVATIONS ARE NON NWS ARE NOT QUALITY
       CONTROLLED AND MAY MIS-REPORT RAIN FOR SNOW...
$$

  *****  WEATHER ACROSS NORTHERN MINNESOTA  *****

CITY           SKY/WX    TMP DP  RH WIND       PRES   REMARKS
FLAG ISLAND    CLOUDY    57  50  77 W7        30.15S
WARROAD        CLOUDY    55  52  88 SW3       30.18S
ROSEAU         MOCLDY    55  50  82 S3        30.18S
HALLOCK        CLEAR     57  52  82 S5        30.17S
THF RVR FALLS  CLEAR     55  50  82 CALM      30.20S
BAUDETTE       CLEAR     53  48  83 VRB3      30.17S
WASKISH        PTCLDY    55  52  88 CALM      30.19S
CROOKSTON      CLEAR     55  50  82 CALM      30.20S
STEPHEN NDAWN    N/A     54  52  94 S3          N/A
GREENBUSH NDAW   N/A     52  50  93 S3          N/A
$$
  *****  WEATHER ACROSS CENTRAL AND WEST MINNESOTA  *****

CITY           SKY/WX    TMP DP  RH WIND       PRES   REMARKS
FOSSTON        CLEAR     52  45  76 CALM      30.22S
BEMIDJI        PTCLDY    54  48  81 W7        30.21S
PARK RAPIDS    CLEAR     49  45  86 NW6       30.22R
ELBOW LAKE     FAIR      55  49  82 E5        30.22S
WADENA         PTCLDY    54  48  82 W3        30.22S
DETROIT LAKES  CLEAR     54  48  82 CALM      30.24S
MOORHEAD       CLEAR     57  54  88 E3        30.22S
FERGUS FALLS   CLEAR     55  46  71 E3        30.22S
MORRIS MN      CLEAR     55  50  82 NE3       30.22S
STAPLES        CLEAR     52  46  82 NW6       30.22R
$$
  *****  WEATHER ELSEWHERE ACROSS MINNESOTA  *****

CITY           SKY/WX    TMP DP  RH WIND       PRES   REMARKS
DULUTH         CLEAR     53  43  68 W3        30.16R
INTRNTL FALLS  CLOUDY    54  49  83 NW3       30.16S
ELY            CLEAR     46  43  87 CALM      30.16S
CLOQUET        CLEAR     52  46  82 W3        30.17R
WHEATON        CLEAR     54  48  82 CALM      30.24S
BRAINERD       MOCLDY    56  49  77 NW8       30.20R
HIBBING        PTCLDY    49  45  86 CALM      30.17R
ALEXANDRIA     CLEAR     53  48  83 N5        30.24S
SAINT CLOUD    CLEAR     58  50  75 NW6       30.20R
MINNEAPOLIS    CLEAR     61  46  57 N3        30.19R
$$

  *****  WEATHER ACROSS SOUTH DAKOTA  *****

CITY           SKY/WX    TMP DP  RH WIND       PRES   REMARKS
SIOUX FALLS    CLEAR     57  46  66 N7        30.23S
BROOKINGS      NOT AVBL
WATERTOWN      CLEAR     58  46  64 CALM      30.23S
HURON          CLEAR     59  45  59 NE5       30.23S
SISSETON         N/A     52  50  93 CALM      30.21S
ABERDEEN       CLEAR     56  48  74 SE3       30.22F
MITCHELL       CLEAR     61  47  59 CALM      30.24S
PIERRE         CLEAR     63  42  46 CALM      30.22S
MOBRIDGE       CLEAR     56  48  74 E5        30.20F
RAPID CITY     CLEAR     61  41  47 SE7       30.25F
$$

  *****  SOME WEATHER IN NEARBY STATES *****

CITY           SKY/WX    TMP DP  RH WIND       PRES   REMARKS
GLASGOW MT     CLEAR     67  39  35 E8        30.12F
GREAT FALLS MT PTCLDY    70  48  45 E7        30.04F
CHEYENNE WY    CLOUDY    65  43  44 SE10      30.33F
SCOTTSBLUFF NE MOCLDY    67  43  41 E12       30.26F
OMAHA NE       PTCLDY    62  49  62 N3        30.22R
DES MOINES IA  PTCLDY    63  48  58 N6        30.18R
DAVENPORT IA   CLEAR     55  48  77 NW6       30.14R
CHICAGO IL     PTCLDY    60  49  66 N3        30.09R
EAU CLAIRE WI  CLEAR     54  45  71 CALM      30.15R
LA CROSSE WI   CLEAR     56  46  69 N6        30.15R
$$

  *****  SOME NATIONAL WEATHER *****

CITY           SKY/WX    TMP DP  RH WIND       PRES   REMARKS
LA GUARDIA NY  PTCLDY    73  67  81 S7        29.61F
RALEIGH NC     PTCLDY    77  64  64 SW9       29.83R
ATLANTA GA     PTCLDY    79  61  53 W6        29.98R
NEW ORLEANS LA PTCLDY    83  64  52 E3        29.98R
OKLAHOMA CITY  MOCLDY    74  56  53 NE8       30.15R
ALBUQUERQUE NM CLOUDY    74  54  49 SE17      30.25R
SALT LAKE CITY MOCLDY    68  56  65 S9        30.12S
LOS ANGELES CA PTCLDY    71  61  70 W15       29.93S
BOISE ID       CLOUDY    74  51  44 S16G23    30.00S
SEATTLE WA     PTSUNNY   74  56  53 S9        29.87S
$$

*** WEATHER ACROSS MANITOBA...SASKATCHEWAN AND ONTARIO ***
                ***ONTARIO***

CITY           SKY/WX    TMP DP  RH WIND       PRES   REMARKS
GERALDTON      MOCLDY    43  37  81 NW2       30.09R
THUNDER BAY    CLEAR     46  43  87 NW2       30.11R
SIOUX LOOKOUT  MOCLDY    55  48  76 W5        30.10F
TORONTO        MOCLDY    55  52  88 N21G29    29.68R
BIG TROUT LK   CLEAR     50  41  71 SW7       29.96F
PICKLE LAKE    PTCLDY    46  39  76 S7        30.04F
DRYDEN         CLOUDY    55  50  82 W8        30.12F
KENORA         MOCLDY    55  48  76 W3        30.15S
$$
                *** MANITOBA***

CITY           SKY/WX    TMP DP  RH WIND       PRES   REMARKS
BRANDON        CLEAR     59  48  67 SW7       30.14F
DAUPHIN        CLEAR     59  48  67 SW8       30.07F
ISLAND LAKE    PTCLDY    52  48  87 W3        29.99S
PILOT MOUND    NOT AVBL
THE PAS        PTCLDY    66  46  48 S7        29.91F
THOMPSON       MOCLDY    59  52  77 S6        29.81F
WINNIPEG       PTCLDY    57  50  77 S5        30.14F
LYNN LAKE      CLEAR     61  48  63 W6        29.79R
CHURCHILL      MOCLDY    43  41  93 E8        29.77S
GILLAM         PTCLDY    50  48  93 SW9       29.82F
$$
                ***SASKATCHEWAN***

CITY           SKY/WX    TMP DP  RH WIND       PRES   REMARKS
ESTEVAN        CLEAR     61  43  51 S3        30.16F
KINDERSLEY     PTCLDY    68  43  40 S9        30.02F
LLOYDMINSTER   PTCLDY    68  45  42 S10       29.95F
PRINCE ALBERT  NOT AVBL
REGINA         CLEAR     64  45  48 SW2       30.12F
YORKTON        CLEAR     63  45  51 SW7       30.09F
N. BATTLEFORD  CLEAR     68  45  42 S7        30.00F
LA RONGE       PTCLDY    70  52  52 SW6       29.88S
SASKATOON      PTCLDY    68  43  40 S8        30.04F
SWIFT CURRENT  CLEAR     63  41  45 S9        30.08F
$$
NOTE: THESE ARE AUTOMATED STATIONS WITH LIMITED QUALITY CONTROL
      "FAIR" INDICATES FEW OR NO CLOUDS BELOW 12,000 FEET WITH NO
      SIGNIFICANT WEATHER AND/OR OBSTRUCTIONS TO VISIBILITY.
      SKY/WX - SKY CONDITION AND SIGNIFICANT WEATHER.
      TMP - AIR TEMPERATURE.    DP   - DEWPOINT TEMPERATURE.
      RH  - RELATIVE HUMIDITY.  PRES - PRESSURE.
      HX  - HEAT INDEX.         WCI  - WIND CHILL INDEX.
$


USA.gov is the U.S. government's official web portal to all federal, state and local government web resources and services.